Temperature
19 18 18 16 15 15 15 15 15 14 14 14 14 13 13 13 12 12 12 12 12 12 13 12 13 13 13 13 13 13 13 13 13 14 14 14 14 14 14 13 13 13 13
20 19 18 17 16 15 15 15 14 14 14 14 13 12 12 12 12 12 12 12 12 12 13 13 13 13 13 13 13 13 13 13 14 14 14 14 13 13 13 13 12 12 13
20 20 18 17 16 15 15 15 14 14 14 14 13 12 11 12 12 12 12 12 12 13 14 14 13 13 13 13 13 13 13 13 13 13 13 13 13 13 13 12 12 12 13
20 20 19 17 16 15 15 15 15 15 14 14 13 12 12 12 12 12 12 12 13 13 14 14 14 14 14 13 13 13 13 13 13 13 13 13 13 13 13 12 12 12 12
20 20 19 18 16 15 15 15 15 15 14 14 13 12 12 12 12 12 13 13 13 13 14 14 14 14 14 13 13 13 13 13 13 13 13 13 13 13 11 11 11 12 12
20 20 19 18 17 16 16 15 15 15 15 15 14 13 13 13 13 13 13 13 13 13 14 14 14 14 14 14 14 13 13 13 14 14 13 13 13 13 12 11 11 11 12
20 19 19 18 18 17 16 15 15 15 15 15 14 13 13 13 13 13 13 13 13 14 14 14 14 14 14 14 14 14 14 14 14 14 14 14 13 13 12 11 11 11 12
20 19 19 18 18 17 16 16 16 15 15 15 15 14 14 13 13 13 13 13 14 14 14 14 14 14 14 14 14 14 14 14 14 14 14 14 14 14 13 13 12 12 12
19 19 19 19 19 18 17 16 16 15 15 15 15 15 15 14 13 13 14 14 14 14 14 14 14 14 14 14 14 14 14 14 13 13 14 13 13 13 13 13 12 12 12
19 19 19 19 19 18 17 17 16 15 15 15 15 15 15 14 14 14 14 14 14 14 14 14 14 14 14 14 13 13 13 13 13 13 13 12 12 12 12 12 12 12 12
19 19 19 18 18 18 17 17 16 16 16 15 15 15 15 14 14 14 14 14 13 13 13 13 13 14 13 13 13 12 12 12 12 12 12 12 12 12 12 12 12 12 12
20 19 19 19 18 18 17 16 16 16 16 15 15 14 14 14 14 14 13 13 13 13 13 13 13 13 13 13 13 13 13 13 12 12 12 12 12 12 12 12 12 12 12
21 20 19 19 18 17 17 16 15 15 15 15 14 14 14 13 13 13 13 13 12 12 12 12 12 12 12 12 12 13 13 13 12 12 12 12 12 12 12 12 12 12 12
21 20 20 19 18 17 17 16 15 15 15 14 14 14 13 13 13 13 12 12 12 12 12 12 12 12 12 12 13 13 13 13 12 12 12 12 12 11 11 12 12 12 12
21 21 20 19 18 17 16 16 15 15 14 14 14 13 13 13 13 13 12 12 12 12 12 12 12 12 13 13 13 13 13 13 12 12 12 11 11 11 11 11 11 12 11
22 21 19 18 18 17 16 15 15 14 14 14 13 13 13 13 13 12 12 12 12 12 12 12 12 12 13 13 13 13 12 12 11 11 11 11 10 10 10 11 11 11 11
21 21 19 18 17 16 16 15 15 14 14 14 13 13 13 13 12 12 12 12 12 12 12 12 12 12 12 12 12 12 11 11 11 10 10 10 10 10 10 10 11 11 11
20 20 18 17 17 16 15 15 14 14 14 14 13 13 13 12 12 12 12 12 12 12 12 12 12 11 11 10 10 10 10 10 10 9 9 9 10 10 10 10 10 10 10
19 18 18 17 17 16 15 14 14 14 14 14 13 13 12 12 12 12 12 12 12 11 11 11 10 9 9 9 9 9 9 9 9 9 9 9 9 9 10 10 10 10 10
18 17 17 17 16 15 15 14 14 14 13 13 13 12 12 12 12 12 12 11 11 10 10 9 9 8 8 8 8 9 9 8 9 9 9 9 9 9 9 9 9 9 9
16 16 16 17 16 15 14 14 14 13 13 13 12 12 12 12 12 11 11 11 10 10 9 8 8 7 7 7 7 8 8 8 8 8 8 8 7 7 7 7 8 7 8
15 15 15 15 15 15 14 14 14 13 13 12 12 12 12 11 11 11 10 10 9 9 8 7 7 7 6 6 6 6 5 6 6 6 6 6 6 6 6 6 6 5 5
14 14 15 15 14 14 14 14 13 13 12 12 12 12 11 11 11 10 10 9 8 8 7 6 6 6 6 5 5 4 3 2 2 4 3 5 4 4 4 4 4 3 2
14 14 14 14 14 14 13 13 13 13 13 12 12 11 11 10 10 9 9 8 8 7 6 6 5 5 5 5 4 4 3 2 1 1 2 3 3 3 3 2 2 1 1
14 13 13 13 13 13 13 13 13 13 13 12 11 11 10 10 9 9 8 8 7 6 5 5 5 4 4 4 4 3 3 2 1 -1 -1 -1 0 1 2 1 1 0 -1
13 13 13 13 13 13 13 13 13 13 12 12 11 11 10 9 9 8 8 7 6 5 5 4 4 4 3 3 3 2 1 0 -0 -1 -2 -2 -2 -2 -2 -1 -1 -1 -2
Wind_Speed
6 11 19 18 17 17 16 15 13 11 10 9 10 12 13 12 10 9 8 7 7 7 7 8 10 11 9 9 8 6 4 3 2 3 4 5 5 5 5 5 4 3 4
11 13 19 18 18 18 16 15 13 11 10 10 11 12 11 9 9 8 7 6 6 6 5 5 5 7 7 6 4 3 2 1 1 3 5 6 7 8 9 6 5 4 4
13 14 18 18 18 18 17 15 14 12 10 10 10 9 9 8 8 8 7 6 5 5 4 3 3 3 3 3 2 1 1 1 3 5 7 6 9 11 11 9 7 7 6
14 15 16 17 17 18 17 15 14 12 10 10 9 7 7 7 8 8 7 6 5 4 4 3 2 2 1 1 2 3 4 4 4 7 7 8 10 10 7 10 8 8 8
11 15 17 19 18 18 17 15 14 12 10 9 8 6 5 5 6 8 8 7 5 4 3 2 1 1 2 2 4 6 7 7 5 7 9 10 9 11 7 9 10 9 9
11 14 18 19 18 18 17 15 13 11 10 9 8 6 4 2 4 9 9 8 7 5 2 1 1 2 4 5 6 7 7 8 6 6 9 10 10 12 11 11 10 10 11
12 12 17 20 19 18 17 15 14 12 10 9 8 7 5 2 1 9 11 10 8 5 3 2 3 4 6 7 8 8 9 9 7 7 8 10 11 14 14 14 12 12 12
14 12 16 20 20 19 17 15 14 13 11 9 8 8 6 4 3 8 11 10 8 6 5 5 6 7 8 9 10 10 10 9 10 8 9 10 13 15 15 16 15 14 15
13 11 11 16 18 19 18 16 14 13 12 10 9 8 7 5 4 7 10 10 9 7 7 7 8 9 10 10 11 12 12 12 11 10 11 11 14 15 15 16 17 16 16
11 12 10 13 15 15 15 16 15 14 13 12 10 9 10 8 6 6 8 9 9 9 8 9 10 10 11 12 13 14 14 13 12 12 11 13 16 16 16 17 17 17 17
11 10 12 11 12 14 14 15 15 15 14 13 12 11 10 7 6 6 8 10 11 11 11 10 11 11 12 12 14 15 14 11 11 11 11 15 17 17 18 18 18 18 18
14 13 12 13 12 11 12 12 12 12 13 13 11 9 8 6 7 9 13 14 14 13 11 11 11 12 11 10 11 12 9 11 9 9 11 16 18 19 20 19 18 19 20
13 14 14 14 12 10 7 9 8 9 10 11 11 10 7 4 4 4 5 7 9 9 7 8 8 8 6 6 6 7 8 8 6 8 10 15 17 18 20 20 20 19 20
10 12 14 14 12 11 8 7 7 6 6 6 10 10 6 3 2 2 1 1 1 2 2 4 4 7 8 9 7 6 7 6 6 7 9 14 16 18 19 20 20 20 19
14 14 13 13 13 12 10 8 6 5 5 7 8 9 9 4 4 3 3 5 6 7 6 5 5 5 5 7 8 7 6 8 9 11 11 16 18 19 20 22 22 22 20
14 15 11 12 12 12 10 8 6 5 6 6 6 8 9 7 5 5 6 5 6 8 8 7 5 6 6 5 8 6 6 8 9 10 11 14 17 19 21 22 24 25 24
9 11 11 11 11 12 10 8 5 5 8 6 8 12 14 13 11 7 7 6 5 8 9 7 7 6 7 7 8 8 6 6 7 8 10 11 13 15 20 22 24 24 23
8 9 9 10 11 10 9 8 7 8 9 9 11 14 15 14 13 9 7 6 7 9 6 5 6 5 6 7 7 7 6 5 6 6 7 9 11 12 16 21 22 22 22
7 8 8 9 11 10 11 11 11 9 9 10 12 12 13 14 14 10 6 5 8 6 6 5 5 4 5 7 7 6 6 4 4 6 7 8 11 12 13 18 22 21 21
6 6 8 9 13 15 13 12 11 11 9 9 10 11 13 13 13 11 6 6 7 5 6 5 5 4 3 5 5 7 6 3 3 6 9 7 11 13 16 18 17 18 21
6 7 9 13 14 14 12 9 8 7 7 8 7 11 13 13 13 9 5 5 5 6 5 5 4 4 4 5 4 5 5 5 3 8 7 6 8 10 16 16 16 13 15
7 9 11 12 11 11 9 7 6 7 6 6 6 9 12 12 11 8 6 6 6 5 6 6 5 3 3 4 3 3 5 6 5 9 4 5 7 8 10 13 14 11 14
9 10 11 11 12 13 12 12 11 8 5 5 6 5 7 11 11 10 8 5 6 5 4 4 4 4 3 3 3 4 4 4 7 4 4 4 7 7 7 6 9 11 14
9 9 12 12 13 13 13 14 14 9 7 5 4 5 6 9 10 10 8 6 5 4 4 4 3 3 2 3 3 2 1 3 4 6 5 6 7 8 8 9 8 9 13
10 10 11 12 12 11 10 12 11 9 6 6 7 8 6 6 8 8 8 5 4 3 3 3 4 4 3 2 2 3 2 3 5 5 9 8 8 7 7 8 7 7 10
10 10 11 12 10 10 11 10 11 11 11 10 8 7 5 4 5 5 5 4 3 2 3 3 3 4 4 3 3 3 3 4 5 5 9 13 10 7 8 7 8 8 7
Wind_Direction
169 171 168 166 162 154 150 146 141 136 133 129 126 133 126 120 118 120 123 110 92 76 60 51 54 60 75 98 107 109 109 99 57 1 326 316 307 283 263 249 222 273 275
158 169 165 167 166 160 155 150 145 141 139 137 134 136 133 127 126 128 125 113 95 77 61 54 53 60 61 75 101 130 155 167 313 317 310 307 304 284 261 239 224 243 271
153 165 163 166 167 164 158 154 151 148 146 146 146 145 145 137 132 132 131 127 113 94 82 78 72 78 72 65 79 168 235 265 295 306 316 318 308 292 250 236 236 250 257
156 163 165 167 168 166 161 159 157 157 157 155 151 148 150 151 149 149 147 146 138 122 111 107 96 96 80 291 292 288 290 299 301 305 318 322 323 316 236 228 239 251 250
157 164 167 168 169 168 165 164 163 164 166 163 159 151 143 157 175 175 170 167 161 149 137 120 86 49 352 322 304 297 296 299 290 295 311 316 322 314 259 244 250 255 258
161 166 167 167 169 169 168 167 168 170 171 171 172 168 154 142 200 196 183 178 177 173 170 126 356 323 309 307 303 299 298 300 294 283 294 302 305 307 287 268 256 253 260
164 168 169 168 169 170 171 172 173 177 175 175 178 176 159 112 161 180 179 182 188 195 217 279 311 314 308 304 298 294 296 297 285 269 274 284 292 295 286 279 270 263 264
163 165 172 172 169 170 174 175 177 180 179 175 178 180 163 134 133 169 180 188 199 215 236 271 292 298 301 299 294 292 296 294 286 274 271 273 280 285 280 279 274 268 268
162 162 169 173 171 173 177 179 181 184 182 178 182 183 170 164 159 171 188 197 211 228 247 271 282 286 289 291 289 287 284 281 275 267 272 272 278 281 278 277 275 270 266
163 167 169 170 172 174 179 184 186 188 186 184 190 185 182 191 194 193 201 211 224 237 252 268 276 279 283 284 285 284 283 282 270 264 262 267 275 279 280 278 275 272 270
176 178 175 173 176 177 179 188 191 192 190 190 200 201 199 207 221 227 223 232 236 241 253 265 270 275 279 281 282 285 291 280 272 268 266 269 277 280 281 280 278 274 271
189 190 184 181 183 179 183 185 189 191 195 197 208 213 211 214 229 233 232 235 235 245 261 276 286 293 292 287 288 293 286 281 276 270 274 283 292 294 294 294 288 280 274
190 188 190 188 185 178 180 177 186 192 197 204 213 219 216 228 251 235 226 248 257 273 286 302 317 325 322 312 309 309 302 293 284 285 292 301 313 319 320 316 308 298 287
196 190 189 192 187 181 180 180 184 189 196 200 214 223 200 182 179 149 162 271 315 334 6 17 11 12 15 10 0 349 347 345 335 331 328 334 344 349 347 340 331 320 305
199 197 184 183 183 179 177 178 180 187 195 196 196 190 170 150 127 96 71 55 45 48 51 41 30 23 16 7 6 1 356 357 354 353 353 1 9 13 14 15 12 7 354
196 193 180 172 170 167 170 167 166 172 168 156 149 140 130 111 94 79 66 54 47 48 53 49 34 29 17 3 359 352 352 355 354 358 8 14 14 17 18 18 16 15 14
183 177 172 168 158 158 158 152 136 125 119 102 91 87 87 87 87 82 72 60 44 46 51 47 32 31 22 7 351 345 349 351 354 7 14 14 10 15 19 15 12 9 8
140 145 155 161 153 147 136 120 108 103 101 96 91 86 86 87 89 83 74 60 51 48 42 43 27 22 14 359 340 330 339 342 355 12 7 12 12 14 14 12 10 6 5
145 140 136 141 143 127 111 106 103 101 98 98 93 89 87 85 85 83 72 59 58 50 38 36 34 28 11 350 325 317 327 333 354 8 3 12 9 9 10 4 3 360 0
148 143 137 130 126 119 113 108 103 96 94 90 89 89 87 83 82 80 72 60 59 54 38 27 19 13 9 340 319 314 312 314 354 9 5 4 357 4 4 359 355 350 355
126 127 131 131 132 127 126 122 116 107 101 92 84 83 83 81 78 75 68 56 52 58 47 31 12 1 350 344 341 322 323 334 353 3 354 2 353 358 353 347 343 343 351
122 118 122 128 127 126 124 118 114 114 101 89 84 75 77 76 73 73 66 61 52 52 41 33 26 8 347 3 357 349 342 336 347 326 321 357 354 344 334 336 329 336 344
124 128 129 126 123 123 122 118 115 103 90 80 78 74 71 76 73 72 70 68 58 54 41 25 24 27 348 339 13 61 10 316 311 297 319 338 332 314 316 316 315 325 326
130 128 128 129 129 131 131 136 137 134 129 129 121 103 82 75 73 70 69 67 59 51 35 6 23 3 11 358 352 45 211 243 298 308 307 313 309 309 300 307 306 301 305
130 130 130 129 130 130 127 131 127 119 115 116 110 105 89 70 68 67 64 58 45 31 13 3 2 6 9 2 339 319 297 261 234 263 297 306 306 296 292 291 292 290 294
125 127 129 128 126 123 121 121 125 125 126 127 127 120 102 82 60 54 61 52 34 9 350 344 344 350 345 340 327 313 301 291 297 284 297 306 300 287 277 280 285 285 288
Height
1502 1503 1504 1505 1507 1508 1508 1509 1509 1509 1509 1508 1508 1509 1510 1511 1512 1513 1513 1513 1513 1512 1512 1512 1511 1512 1512 1511 1511 1511 1511 1510 1510 1509 1508 1507 1506 1506 1507 1507 1507 1507 1507
1502 1502 1503 1505 1506 1507 1508 1508 1508 1508 1508 1507 1507 1508 1509 1510 1512 1512 1513 1513 1512 1511 1511 1510 1510 1511 1511 1511 1510 1510 1509 1509 1508 1507 1506 1505 1505 1505 1505 1506 1506 1506 1506
1501 1502 1503 1504 1506 1507 1507 1507 1508 1508 1507 1507 1507 1507 1508 1510 1511 1512 1512 1512 1511 1511 1510 1510 1509 1510 1510 1510 1509 1509 1508 1508 1507 1506 1505 1505 1504 1504 1504 1504 1505 1505 1505
1501 1502 1503 1504 1506 1507 1507 1507 1507 1507 1507 1506 1506 1507 1508 1509 1510 1511 1511 1512 1511 1511 1510 1509 1508 1508 1509 1509 1508 1508 1508 1507 1506 1506 1505 1504 1504 1503 1503 1503 1503 1503 1504
1501 1502 1503 1504 1505 1506 1507 1507 1507 1507 1507 1506 1507 1507 1507 1508 1509 1510 1511 1511 1511 1510 1510 1509 1508 1507 1507 1507 1507 1507 1507 1506 1505 1504 1504 1503 1503 1502 1502 1503 1502 1502 1502
1501 1502 1503 1504 1505 1506 1506 1507 1507 1507 1507 1506 1507 1507 1508 1508 1509 1510 1510 1511 1510 1510 1510 1509 1508 1507 1507 1506 1506 1506 1505 1504 1504 1503 1502 1501 1501 1500 1500 1501 1500 1499 1499
1501 1502 1503 1504 1505 1506 1506 1506 1507 1507 1507 1507 1507 1507 1507 1508 1509 1510 1510 1510 1510 1510 1510 1509 1509 1508 1507 1506 1506 1505 1505 1504 1503 1502 1501 1500 1499 1498 1497 1498 1498 1497 1497
1501 1502 1503 1503 1504 1505 1505 1506 1506 1506 1507 1507 1507 1507 1507 1508 1509 1510 1510 1510 1510 1510 1509 1509 1509 1508 1507 1506 1506 1505 1504 1503 1502 1501 1500 1498 1497 1496 1495 1495 1496 1495 1494
1500 1501 1502 1503 1503 1504 1505 1505 1505 1506 1506 1506 1506 1506 1507 1508 1509 1509 1510 1510 1510 1509 1509 1509 1508 1507 1506 1506 1505 1504 1503 1502 1501 1499 1498 1497 1496 1495 1494 1493 1492 1492 1491
1499 1500 1501 1502 1502 1503 1503 1504 1505 1505 1506 1506 1506 1506 1506 1507 1508 1509 1509 1509 1509 1509 1508 1508 1508 1507 1505 1504 1503 1502 1501 1500 1499 1497 1496 1495 1493 1492 1491 1489 1489 1489 1488
1497 1498 1499 1500 1501 1502 1502 1503 1504 1504 1505 1505 1506 1506 1506 1507 1508 1509 1509 1509 1509 1508 1508 1507 1507 1505 1504 1502 1501 1500 1498 1497 1496 1494 1493 1491 1490 1488 1487 1487 1486 1486 1485
1494 1495 1497 1498 1499 1500 1501 1502 1503 1503 1503 1505 1506 1506 1506 1507 1507 1508 1509 1508 1508 1507 1507 1506 1505 1503 1502 1500 1498 1497 1495 1494 1492 1491 1489 1488 1486 1485 1484 1483 1482 1481 1480
1492 1493 1494 1496 1497 1498 1499 1500 1501 1502 1503 1504 1505 1506 1506 1507 1507 1508 1508 1508 1507 1506 1505 1504 1503 1501 1499 1498 1496 1494 1492 1491 1489 1487 1486 1484 1482 1481 1479 1478 1477 1476 1475
1490 1490 1492 1493 1494 1495 1497 1498 1500 1501 1502 1503 1505 1506 1506 1506 1506 1507 1507 1507 1506 1505 1503 1502 1501 1499 1497 1496 1494 1492 1490 1488 1486 1484 1482 1480 1478 1476 1474 1472 1471 1470 1470
1486 1487 1488 1490 1491 1493 1495 1497 1498 1500 1501 1502 1504 1504 1505 1505 1506 1506 1506 1505 1504 1503 1501 1500 1499 1497 1496 1494 1492 1489 1487 1485 1482 1480 1478 1476 1474 1472 1470 1469 1467 1465 1464
1482 1483 1485 1487 1489 1491 1493 1495 1497 1499 1500 1501 1503 1503 1504 1505 1505 1505 1504 1504 1503 1501 1500 1499 1497 1495 1493 1490 1488 1486 1483 1481 1478 1476 1474 1473 1471 1470 1468 1466 1464 1462 1460
1477 1479 1481 1484 1487 1489 1492 1494 1495 1497 1498 1500 1501 1502 1503 1504 1504 1504 1503 1503 1502 1500 1499 1497 1495 1492 1489 1486 1484 1482 1479 1476 1474 1473 1472 1470 1469 1467 1465 1463 1461 1459 1457
1473 1475 1478 1481 1484 1487 1490 1492 1493 1494 1496 1498 1500 1501 1502 1503 1503 1503 1503 1502 1501 1499 1497 1494 1491 1488 1485 1482 1480 1478 1475 1473 1471 1470 1469 1468 1466 1464 1461 1459 1457 1454 1452
1470 1472 1474 1478 1481 1484 1487 1489 1490 1492 1495 1497 1499 1500 1501 1502 1502 1502 1502 1501 1499 1497 1494 1491 1488 1484 1481 1479 1477 1475 1472 1470 1469 1468 1466 1464 1462 1459 1457 1454 1452 1449 1446
1467 1469 1472 1474 1477 1480 1483 1486 1489 1491 1494 1496 1498 1499 1501 1502 1502 1502 1501 1499 1497 1495 1492 1489 1486 1482 1479 1476 1473 1471 1469 1467 1464 1464 1462 1460 1457 1454 1452 1449 1446 1443 1440
1462 1464 1467 1469 1472 1475 1479 1483 1487 1490 1493 1495 1497 1499 1500 1501 1501 1500 1499 1497 1495 1492 1489 1486 1483 1480 1476 1472 1469 1465 1464 1463 1460 1460 1457 1455 1452 1450 1447 1444 1440 1437 1433
1459 1461 1463 1465 1469 1474 1479 1483 1486 1489 1492 1494 1496 1498 1499 1500 1500 1499 1497 1495 1493 1490 1487 1484 1481 1477 1474 1470 1466 1462 1459 1456 1456 1455 1451 1449 1446 1444 1441 1437 1434 1431 1427
1457 1459 1462 1465 1470 1474 1478 1482 1485 1488 1490 1493 1495 1497 1498 1499 1498 1497 1495 1493 1491 1488 1485 1482 1478 1475 1472 1470 1467 1465 1461 1456 1450 1445 1444 1442 1440 1437 1434 1431 1428 1425 1421
1455 1459 1463 1467 1471 1475 1478 1481 1483 1486 1489 1492 1494 1496 1497 1497 1496 1495 1493 1491 1489 1486 1483 1480 1477 1474 1471 1468 1466 1463 1462 1459 1453 1443 1437 1435 1433 1430 1427 1425 1421 1418 1415
1454 1459 1463 1466 1470 1474 1477 1480 1483 1486 1488 1491 1493 1494 1495 1494 1494 1492 1491 1489 1486 1483 1480 1478 1475 1472 1469 1466 1463 1460 1457 1455 1451 1445 1434 1428 1425 1423 1420 1417 1414 1411 1407
1452 1458 1462 1465 1469 1472 1476 1479 1482 1485 1487 1489 1491 1492 1492 1492 1491 1490 1488 1486 1483 1480 1478 1475 1472 1470 1467 1463 1460 1457 1453 1449 1445 1440 1431 1422 1417 1414 1412 1410 1407 1404 1401